386P/PanSTARRS (2012)

Japanese version
Home page
Updated on November 9, 2019

---------------------------------------------------------------------

* Profile

Designation 386P/2011 U1
Discovery Date October 23, 2011
Magnitude 21.0 mag
Discoverer Pan-STARRS 1 telescope (Haleakala)

* Pictures

* Orbital Elements

Epoch 2012 June 2.0 TT = JDT 2456080.5
T 2012 June 20.68059 TT                                 MPC
q   2.3561405            (2000.0)            P               Q
n   0.12110853     Peri.  353.15110     -0.62079780     -0.76161370
a   4.0459411      Node   135.00685     +0.73117526     -0.64802148
e   0.4176533      Incl.   15.24328     +0.28283003     +0.00356811
P   8.14
From 52 observations 2004 Feb. 14-2011 Dec. 29, mean residual 0".3.

* Magnitudes Graph

        m1 = 14.0 + 5 log d + 10.0 log r

---------------------------------------------------------------------

The orbital elements are published on M.P.E.C. 2011-Y66.
The magnitudes graphs are made with Comet for Windows.

---------------------------------------------------------------------

Copyright(C) Seiichi Yoshida (comet@aerith.net). All rights reserved.